Time,TemperatureF,DewpointF,PressureIn,WindDirection,WindDirectionDegrees,WindSpeedMPH,WindSpeedGustMPH,Humidity,HourlyPrecipIn,Conditions,Clouds,dailyrainin,SolarRadiationWatts/m^2,SoftwareType,DateUTC
2013-07-14 00:00:00,73.6,-99.9,30.28,SE,125,0.0,0.0,0,0.00,,,0.00,0,Wunderground v.1.15,2013-07-14 04:00:00,
2013-07-14 00:05:00,73.6,-99.9,30.28,SE,124,0.0,0.0,0,0.00,,,0.00,0,Wunderground v.1.15,2013-07-14 04:05:00,
2013-07-14 00:10:00,73.6,-99.9,30.28,SE,125,0.0,0.0,0,0.00,,,0.00,0,Wunderground v.1.15,2013-07-14 04:10:00,
2013-07-14 00:15:00,73.6,-99.9,30.28,SE,124,0.0,0.0,0,0.00,,,0.00,0,Wunderground v.1.15,2013-07-14 04:15:00,
2013-07-14 00:20:00,73.5,-99.9,30.28,SE,125,0.0,0.0,0,0.00,,,0.00,0,Wunderground v.1.15,2013-07-14 04:20:00,
2013-07-14 00:30:00,73.5,-99.9,30.29,SE,124,0.0,0.0,0,0.00,,,0.00,0,Wunderground v.1.15,2013-07-14 04:30:00,
2013-07-14 00:35:00,73.6,-99.9,30.29,SE,124,0.0,0.0,0,0.00,,,0.00,0,Wunderground v.1.15,2013-07-14 04:35:00,
2013-07-14 00:40:00,73.6,-99.9,30.29,SE,124,0.0,0.0,0,0.00,,,0.00,0,Wunderground v.1.15,2013-07-14 04:40:00,
2013-07-14 00:45:00,73.6,-99.9,30.29,SE,125,0.0,0.0,0,0.00,,,0.00,0,Wunderground v.1.15,2013-07-14 04:45:00,
2013-07-14 00:50:00,73.5,-99.9,30.29,SE,125,0.0,0.0,0,0.00,,,0.00,0,Wunderground v.1.15,2013-07-14 04:50:00,
2013-07-14 01:00:00,73.1,-99.9,30.29,SE,124,1.0,1.0,0,0.00,,,0.00,0,Wunderground v.1.15,2013-07-14 05:00:00,
2013-07-14 01:10:00,73.1,-99.9,30.29,SE,125,1.0,1.0,0,0.00,,,0.00,0,Wunderground v.1.15,2013-07-14 05:10:00,
2013-07-14 01:20:00,73.3,-99.9,30.29,SE,125,0.0,0.0,0,0.00,,,0.00,0,Wunderground v.1.15,2013-07-14 05:20:00,
2013-07-14 01:25:00,73.4,-99.9,30.29,SE,125,0.0,2.0,0,0.00,,,0.00,0,Wunderground v.1.15,2013-07-14 05:25:00,
2013-07-14 01:35:00,73.3,-99.9,30.29,SE,124,2.0,2.0,0,0.00,,,0.00,0,Wunderground v.1.15,2013-07-14 05:35:00,
2013-07-14 01:45:00,73.3,-99.9,30.29,SE,125,3.0,4.0,0,0.00,,,0.00,0,Wunderground v.1.15,2013-07-14 05:45:00,
2013-07-14 01:50:00,73.2,-99.9,30.29,SE,124,3.0,3.0,0,0.00,,,0.00,0,Wunderground v.1.15,2013-07-14 05:50:00,
2013-07-14 02:00:00,73.0,-99.9,30.29,SE,124,3.0,3.0,0,0.00,,,0.00,0,Wunderground v.1.15,2013-07-14 06:00:00,
2013-07-14 02:05:00,73.0,-99.9,30.29,SE,128,3.0,3.0,0,0.00,,,0.00,0,Wunderground v.1.15,2013-07-14 06:05:00,
2013-07-14 02:10:00,73.0,-99.9,30.29,NNW,331,4.0,4.0,0,0.00,,,0.00,0,Wunderground v.1.15,2013-07-14 06:10:00,
2013-07-14 02:20:00,73.0,-99.9,30.28,SW,218,3.0,3.0,0,0.00,,,0.00,0,Wunderground v.1.15,2013-07-14 06:20:00,
2013-07-14 02:30:00,73.0,-99.9,30.29,SW,222,1.0,1.0,0,0.00,,,0.00,0,Wunderground v.1.15,2013-07-14 06:30:00,
2013-07-14 02:40:00,73.2,-99.9,30.29,SW,222,3.0,4.0,0,0.00,,,0.00,0,Wunderground v.1.15,2013-07-14 06:40:00,
2013-07-14 02:50:00,72.9,-99.9,30.29,SW,228,4.0,6.0,0,0.00,,,0.00,0,Wunderground v.1.15,2013-07-14 06:50:00,
2013-07-14 03:00:00,72.8,-99.9,30.29,SW,222,4.0,4.0,0,0.00,,,0.00,0,Wunderground v.1.15,2013-07-14 07:00:00,
2013-07-14 03:05:00,72.8,-99.9,30.29,SW,222,3.0,4.0,0,0.00,,,0.00,0,Wunderground v.1.15,2013-07-14 07:05:00,
2013-07-14 03:10:00,72.8,-99.9,30.29,SW,223,2.0,2.0,0,0.00,,,0.00,0,Wunderground v.1.15,2013-07-14 07:10:00,
2013-07-14 03:20:00,73.1,-99.9,30.29,SW,230,2.0,2.0,0,0.00,,,0.00,0,Wunderground v.1.15,2013-07-14 07:20:00,
2013-07-14 03:30:00,73.2,-99.9,30.29,SW,230,0.0,1.0,0,0.00,,,0.00,0,Wunderground v.1.15,2013-07-14 07:30:00,
2013-07-14 03:35:00,73.0,-99.9,30.29,SW,222,1.0,2.0,0,0.00,,,0.00,0,Wunderground v.1.15,2013-07-14 07:35:00,
2013-07-14 03:45:00,72.6,-99.9,30.29,SW,221,3.0,3.0,0,0.00,,,0.00,0,Wunderground v.1.15,2013-07-14 07:45:00,
2013-07-14 03:50:00,72.6,-99.9,30.29,SW,219,3.0,5.0,0,0.00,,,0.00,0,Wunderground v.1.15,2013-07-14 07:50:00,
2013-07-14 03:55:00,72.5,-99.9,30.29,SW,228,3.0,5.0,0,0.00,,,0.00,0,Wunderground v.1.15,2013-07-14 07:55:00,
2013-07-14 04:05:00,72.4,-99.9,30.29,SW,225,4.0,5.0,0,0.00,,,0.00,0,Wunderground v.1.15,2013-07-14 08:05:00,
2013-07-14 04:15:00,72.4,-99.9,30.29,SW,231,3.0,3.0,0,0.00,,,0.00,0,Wunderground v.1.15,2013-07-14 08:15:00,
2013-07-14 04:25:00,72.5,-99.9,30.29,SW,228,4.0,4.0,0,0.00,,,0.00,0,Wunderground v.1.15,2013-07-14 08:25:00,
2013-07-14 04:30:00,72.5,-99.9,30.29,SW,228,4.0,4.0,0,0.00,,,0.00,0,Wunderground v.1.15,2013-07-14 08:30:00,
2013-07-14 04:40:00,72.4,-99.9,30.28,SW,221,4.0,4.0,0,0.00,,,0.00,0,Wunderground v.1.15,2013-07-14 08:40:00,
2013-07-14 04:50:00,72.2,-99.9,30.28,SW,225,5.0,6.0,0,0.00,,,0.00,0,Wunderground v.1.15,2013-07-14 08:50:00,
2013-07-14 04:55:00,72.1,-99.9,30.28,SW,222,6.0,6.0,0,0.00,,,0.00,0,Wunderground v.1.15,2013-07-14 08:55:00,
2013-07-14 05:05:00,71.9,-99.9,30.29,SW,225,5.0,10.0,0,0.00,,,0.00,0,Wunderground v.1.15,2013-07-14 09:05:00,
2013-07-14 05:15:00,71.8,-99.9,30.28,SW,231,4.0,5.0,0,0.00,,,0.00,0,Wunderground v.1.15,2013-07-14 09:15:00,
2013-07-14 05:20:00,71.7,-99.9,30.29,SW,230,4.0,5.0,0,0.00,,,0.00,0,Wunderground v.1.15,2013-07-14 09:20:00,
2013-07-14 05:25:00,71.7,-99.9,30.29,WSW,244,5.0,5.0,0,0.00,,,0.00,0,Wunderground v.1.15,2013-07-14 09:25:00,
2013-07-14 05:30:00,71.7,-99.9,30.28,SW,224,4.0,4.0,0,0.00,,,0.00,0,Wunderground v.1.15,2013-07-14 09:30:00,
2013-07-14 05:40:00,71.4,-99.9,30.29,SW,232,5.0,6.0,0,0.00,,,0.00,11,Wunderground v.1.15,2013-07-14 09:40:00,
2013-07-14 05:45:00,71.4,-99.9,30.29,WSW,244,5.0,6.0,0,0.00,,,0.00,14,Wunderground v.1.15,2013-07-14 09:45:00,
2013-07-14 05:50:00,71.5,-99.9,30.29,SW,235,4.0,8.0,0,0.00,,,0.00,18,Wunderground v.1.15,2013-07-14 09:50:00,
2013-07-14 06:00:00,71.5,-99.9,30.28,West,281,5.0,7.0,0,0.00,,,0.00,19,Wunderground v.1.15,2013-07-14 10:00:00,
2013-07-14 06:10:00,71.5,-99.9,30.28,SW,232,5.0,11.0,0,0.00,,,0.00,32,Wunderground v.1.15,2013-07-14 10:10:00,
2013-07-14 06:15:00,71.5,-99.9,30.28,SW,228,6.0,11.0,0,0.00,,,0.00,47,Wunderground v.1.15,2013-07-14 10:15:00,
2013-07-14 06:25:00,71.5,-99.9,30.28,WSW,242,6.0,9.0,0,0.00,,,0.00,58,Wunderground v.1.15,2013-07-14 10:25:00,
2013-07-14 06:35:00,71.8,-99.9,30.28,SW,229,6.0,6.0,0,0.00,,,0.00,70,Wunderground v.1.15,2013-07-14 10:35:00,
2013-07-14 06:45:00,72.2,-99.9,30.28,SW,234,6.0,7.0,0,0.00,,,0.00,135,Wunderground v.1.15,2013-07-14 10:45:00,
2013-07-14 06:50:00,72.4,-99.9,30.28,West,265,6.0,6.0,0,0.00,,,0.00,158,Wunderground v.1.15,2013-07-14 10:50:00,
2013-07-14 07:00:00,73.0,-99.9,30.28,West,262,6.0,6.0,0,0.00,,,0.00,206,Wunderground v.1.15,2013-07-14 11:00:00,
2013-07-14 07:05:00,73.4,-99.9,30.28,WSW,252,6.0,6.0,0,0.00,,,0.00,185,Wunderground v.1.15,2013-07-14 11:05:00,
2013-07-14 07:15:00,73.9,-99.9,30.28,West,267,6.0,9.0,0,0.00,,,0.00,299,Wunderground v.1.15,2013-07-14 11:15:00,
2013-07-14 07:20:00,74.3,-99.9,30.28,WSW,255,7.0,7.0,0,0.00,,,0.00,339,Wunderground v.1.15,2013-07-14 11:20:00,
2013-07-14 07:30:00,74.9,-99.9,30.29,NW,313,8.0,8.0,0,0.00,,,0.00,374,Wunderground v.1.15,2013-07-14 11:30:00,
2013-07-14 07:40:00,75.8,-99.9,30.29,West,261,7.0,7.0,0,0.00,,,0.00,462,Wunderground v.1.15,2013-07-14 11:40:00,
2013-07-14 07:50:00,76.4,-99.9,30.30,West,277,7.0,8.0,0,0.00,,,0.00,257,Wunderground v.1.15,2013-07-14 11:50:00,
2013-07-14 08:00:00,76.7,-99.9,30.30,West,272,7.0,7.0,0,0.00,,,0.00,468,Wunderground v.1.15,2013-07-14 12:00:00,
2013-07-14 08:05:00,76.9,-99.9,30.30,WNW,285,6.0,8.0,0,0.00,,,0.00,327,Wunderground v.1.15,2013-07-14 12:05:00,
2013-07-14 08:15:00,76.7,-99.9,30.30,WSW,255,7.0,7.0,0,0.00,,,0.00,193,Wunderground v.1.15,2013-07-14 12:15:00,
2013-07-14 08:25:00,77.4,-99.9,30.30,WSW,245,5.0,7.0,0,0.00,,,0.00,513,Wunderground v.1.15,2013-07-14 12:25:00,
2013-07-14 08:35:00,78.6,-99.9,30.30,West,273,6.0,6.0,0,0.00,,,0.00,538,Wunderground v.1.15,2013-07-14 12:35:00,
2013-07-14 08:45:00,80.0,-99.9,30.30,SW,234,5.0,7.0,0,0.00,,,0.00,547,Wunderground v.1.15,2013-07-14 12:45:00,
2013-07-14 08:50:00,80.5,-99.9,30.30,WSW,238,5.0,5.0,0,0.00,,,0.00,582,Wunderground v.1.15,2013-07-14 12:50:00,
2013-07-14 08:55:00,80.7,-99.9,30.30,WSW,242,6.0,9.0,0,0.00,,,0.00,594,Wunderground v.1.15,2013-07-14 12:55:00,
2013-07-14 09:05:00,80.8,21.3,30.30,SW,225,5.0,6.0,11,0.00,,,0.00,724,Wunderground v.1.15,2013-07-14 13:05:00,
2013-07-14 09:10:00,81.0,23.6,30.30,WSW,242,5.0,5.0,12,0.00,,,0.00,765,Wunderground v.1.15,2013-07-14 13:10:00,
2013-07-14 09:15:00,81.6,26.0,30.30,WNW,283,4.0,5.0,13,0.00,,,0.00,290,Wunderground v.1.15,2013-07-14 13:15:00,
2013-07-14 09:25:00,82.4,48.7,30.30,WNW,299,5.0,10.0,31,0.00,,,0.00,223,Wunderground v.1.15,2013-07-14 13:25:00,
2013-07-14 09:30:00,82.6,53.7,30.30,WNW,294,4.0,6.0,37,0.00,,,0.00,234,Wunderground v.1.15,2013-07-14 13:30:00,
2013-07-14 09:40:00,83.3,59.1,30.30,NW,316,6.0,7.0,44,0.00,,,0.00,751,Wunderground v.1.15,2013-07-14 13:40:00,
2013-07-14 09:45:00,83.8,64.3,30.30,NNW,345,6.0,10.0,52,0.00,,,0.00,731,Wunderground v.1.15,2013-07-14 13:45:00,
2013-07-14 09:55:00,84.7,68.3,30.30,North,3,5.0,6.0,58,0.00,,,0.00,707,Wunderground v.1.15,2013-07-14 13:55:00,
2013-07-14 10:05:00,84.1,67.2,30.30,NNE,28,6.0,7.0,57,0.00,,,0.00,795,Wunderground v.1.15,2013-07-14 14:05:00,
2013-07-14 10:15:00,84.2,67.3,30.30,North,350,5.0,5.0,57,0.00,,,0.00,664,Wunderground v.1.15,2013-07-14 14:15:00,
2013-07-14 10:20:00,84.2,66.3,30.30,North,5,5.0,8.0,55,0.00,,,0.00,784,Wunderground v.1.15,2013-07-14 14:20:00,
2013-07-14 10:30:00,84.6,69.2,30.30,NW,321,4.0,5.0,60,0.00,,,0.00,807,Wunderground v.1.15,2013-07-14 14:30:00,
2013-07-14 10:40:00,84.6,70.1,30.31,NW,326,4.0,6.0,62,0.00,,,0.00,838,Wunderground v.1.15,2013-07-14 14:40:00,
2013-07-14 10:50:00,84.5,69.1,30.31,NNW,331,6.0,6.0,60,0.00,,,0.00,870,Wunderground v.1.15,2013-07-14 14:50:00,
2013-07-14 10:55:00,84.5,70.5,30.31,NNW,345,6.0,7.0,63,0.00,,,0.00,870,Wunderground v.1.15,2013-07-14 14:55:00,
2013-07-14 11:05:00,84.4,69.0,30.30,NNW,340,7.0,7.0,60,0.00,,,0.00,870,Wunderground v.1.15,2013-07-14 15:05:00,
2013-07-14 11:15:00,85.0,70.0,30.30,NNW,346,8.0,9.0,61,0.00,,,0.00,907,Wunderground v.1.15,2013-07-14 15:15:00,
2013-07-14 11:25:00,85.0,72.8,30.30,NNW,345,8.0,11.0,67,0.00,,,0.00,900,Wunderground v.1.15,2013-07-14 15:25:00,
2013-07-14 11:35:00,85.7,73.5,30.30,North,7,7.0,8.0,67,0.00,,,0.00,881,Wunderground v.1.15,2013-07-14 15:35:00,
2013-07-14 11:45:00,85.9,74.5,30.30,NNW,331,7.0,9.0,69,0.00,,,0.00,919,Wunderground v.1.15,2013-07-14 15:45:00,
2013-07-14 11:55:00,85.8,74.0,30.30,West,276,6.0,7.0,68,0.00,,,0.00,919,Wunderground v.1.15,2013-07-14 15:55:00,
2013-07-14 12:00:00,85.1,73.8,30.30,SSW,196,5.0,5.0,69,0.00,,,0.00,925,Wunderground v.1.15,2013-07-14 16:00:00,
2013-07-14 12:10:00,83.4,69.9,30.30,SSW,196,4.0,5.0,64,0.00,,,0.00,944,Wunderground v.1.15,2013-07-14 16:10:00,
2013-07-14 12:15:00,82.9,68.5,30.30,SSW,192,4.0,6.0,62,0.00,,,0.00,925,Wunderground v.1.15,2013-07-14 16:15:00,
2013-07-14 12:25:00,82.9,68.1,30.29,SW,217,5.0,5.0,61,0.00,,,0.00,947,Wunderground v.1.15,2013-07-14 16:25:00,
2013-07-14 12:30:00,82.1,65.9,30.29,SSW,209,5.0,7.0,58,0.00,,,0.00,954,Wunderground v.1.15,2013-07-14 16:30:00,
2013-07-14 12:40:00,81.2,61.9,30.29,SW,229,7.0,8.0,52,0.00,,,0.00,939,Wunderground v.1.15,2013-07-14 16:40:00,
2013-07-14 12:50:00,81.5,61.6,30.29,WSW,238,6.0,11.0,51,0.00,,,0.00,940,Wunderground v.1.15,2013-07-14 16:50:00,
2013-07-14 13:00:00,78.8,53.1,30.29,SW,235,9.0,11.0,41,0.00,,,0.00,939,Wunderground v.1.15,2013-07-14 17:00:00,
2013-07-14 13:10:00,79.1,45.0,30.29,SW,233,7.0,10.0,30,0.00,,,0.00,930,Wunderground v.1.15,2013-07-14 17:10:00,
2013-07-14 13:20:00,78.3,43.4,30.29,WSW,241,8.0,8.0,29,0.00,,,0.00,926,Wunderground v.1.15,2013-07-14 17:20:00,
2013-07-14 13:30:00,78.8,42.0,30.29,SW,217,7.0,7.0,27,0.00,,,0.00,928,Wunderground v.1.15,2013-07-14 17:30:00,
2013-07-14 13:35:00,78.6,45.4,30.28,SW,220,7.0,7.0,31,0.00,,,0.00,925,Wunderground v.1.15,2013-07-14 17:35:00,
2013-07-14 13:45:00,78.4,42.6,30.28,SW,214,8.0,8.0,28,0.00,,,0.00,930,Wunderground v.1.15,2013-07-14 17:45:00,
2013-07-14 13:55:00,78.8,42.0,30.28,WSW,243,8.0,8.0,27,0.00,,,0.00,907,Wunderground v.1.15,2013-07-14 17:55:00,
2013-07-14 14:05:00,78.7,42.8,30.28,SW,235,9.0,11.0,28,0.00,,,0.00,898,Wunderground v.1.15,2013-07-14 18:05:00,
2013-07-14 14:15:00,80.9,47.4,30.27,SW,225,5.0,11.0,31,0.00,,,0.00,893,Wunderground v.1.15,2013-07-14 18:15:00,
2013-07-14 14:25:00,81.4,59.8,30.27,SW,233,6.0,6.0,48,0.00,,,0.00,886,Wunderground v.1.15,2013-07-14 18:25:00,
2013-07-14 14:35:00,80.1,56.8,30.27,WSW,253,9.0,11.0,45,0.00,,,0.00,860,Wunderground v.1.15,2013-07-14 18:35:00,
2013-07-14 14:40:00,80.3,53.8,30.26,SSW,211,9.0,9.0,40,0.00,,,0.00,846,Wunderground v.1.15,2013-07-14 18:40:00,
2013-07-14 14:50:00,79.4,52.3,30.26,SW,228,10.0,15.0,39,0.00,,,0.00,833,Wunderground v.1.15,2013-07-14 18:50:00,
2013-07-14 14:55:00,78.7,49.5,30.26,SW,221,11.0,15.0,36,0.00,,,0.00,861,Wunderground v.1.15,2013-07-14 18:55:00,
2013-07-14 15:05:00,78.9,48.9,30.26,SW,222,9.0,9.0,35,0.00,,,0.00,831,Wunderground v.1.15,2013-07-14 19:05:00,
2013-07-14 15:15:00,79.5,45.3,30.25,SW,234,7.0,10.0,30,0.00,,,0.00,793,Wunderground v.1.15,2013-07-14 19:15:00,
2013-07-14 15:25:00,79.9,53.4,30.25,WSW,246,10.0,13.0,40,0.00,,,0.00,777,Wunderground v.1.15,2013-07-14 19:25:00,
2013-07-14 15:35:00,80.3,55.8,30.25,SW,219,7.0,8.0,43,0.00,,,0.00,174,Wunderground v.1.15,2013-07-14 19:35:00,
2013-07-14 15:45:00,80.2,53.7,30.25,SW,226,8.0,8.0,40,0.00,,,0.00,765,Wunderground v.1.15,2013-07-14 19:45:00,
2013-07-14 15:55:00,80.8,58.1,30.25,SSW,196,8.0,9.0,46,0.00,,,0.00,710,Wunderground v.1.15,2013-07-14 19:55:00,
2013-07-14 16:00:00,80.8,58.7,30.25,WSW,239,7.0,7.0,47,0.00,,,0.00,705,Wunderground v.1.15,2013-07-14 20:00:00,
2013-07-14 16:05:00,80.9,59.9,30.24,WSW,243,8.0,11.0,49,0.00,,,0.00,687,Wunderground v.1.15,2013-07-14 20:05:00,
2013-07-14 16:15:00,80.9,59.4,30.24,SW,225,7.0,8.0,48,0.00,,,0.00,645,Wunderground v.1.15,2013-07-14 20:15:00,
2013-07-14 16:25:00,80.7,59.2,30.24,SW,219,8.0,10.0,48,0.00,,,0.00,729,Wunderground v.1.15,2013-07-14 20:25:00,
2013-07-14 16:35:00,81.1,60.1,30.24,SW,227,6.0,7.0,49,0.00,,,0.00,213,Wunderground v.1.15,2013-07-14 20:35:00,
2013-07-14 16:40:00,81.0,60.0,30.24,WSW,246,6.0,11.0,49,0.00,,,0.00,657,Wunderground v.1.15,2013-07-14 20:40:00,
2013-07-14 16:45:00,81.2,60.8,30.24,WSW,242,7.0,11.0,50,0.00,,,0.00,629,Wunderground v.1.15,2013-07-14 20:45:00,
2013-07-14 16:55:00,81.1,61.8,30.24,SW,226,7.0,7.0,52,0.00,,,0.00,501,Wunderground v.1.15,2013-07-14 20:55:00,
2013-07-14 17:05:00,80.7,59.2,30.24,SSW,211,7.0,14.0,48,0.00,,,0.00,594,Wunderground v.1.15,2013-07-14 21:05:00,
2013-07-14 17:15:00,80.2,58.1,30.23,SW,216,10.0,10.0,47,0.00,,,0.00,517,Wunderground v.1.15,2013-07-14 21:15:00,
2013-07-14 17:25:00,79.7,53.2,30.23,West,267,9.0,12.0,40,0.00,,,0.00,450,Wunderground v.1.15,2013-07-14 21:25:00,
2013-07-14 17:35:00,79.9,51.3,30.23,South,185,8.0,9.0,37,0.00,,,0.00,427,Wunderground v.1.15,2013-07-14 21:35:00,
2013-07-14 17:45:00,80.6,51.9,30.23,SW,233,6.0,10.0,37,0.00,,,0.00,394,Wunderground v.1.15,2013-07-14 21:45:00,
2013-07-14 17:55:00,80.4,54.5,30.23,WSW,244,8.0,8.0,41,0.00,,,0.00,366,Wunderground v.1.15,2013-07-14 21:55:00,
2013-07-14 18:05:00,80.7,54.1,30.23,SW,220,6.0,8.0,40,0.00,,,0.00,338,Wunderground v.1.15,2013-07-14 22:05:00,
2013-07-14 18:15:00,81.1,59.6,30.23,West,267,6.0,7.0,48,0.00,,,0.00,306,Wunderground v.1.15,2013-07-14 22:15:00,
2013-07-14 18:25:00,81.2,60.2,30.23,West,265,6.0,7.0,49,0.00,,,0.00,278,Wunderground v.1.15,2013-07-14 22:25:00,
2013-07-14 18:35:00,81.0,60.0,30.23,SW,230,6.0,12.0,49,0.00,,,0.00,244,Wunderground v.1.15,2013-07-14 22:35:00,
2013-07-14 18:45:00,80.6,56.7,30.23,SSW,213,7.0,7.0,44,0.00,,,0.00,211,Wunderground v.1.15,2013-07-14 22:45:00,
2013-07-14 18:50:00,80.4,56.5,30.23,SW,222,7.0,13.0,44,0.00,,,0.00,195,Wunderground v.1.15,2013-07-14 22:50:00,
2013-07-14 19:00:00,80.1,51.5,30.23,WSW,249,7.0,9.0,37,0.00,,,0.00,158,Wunderground v.1.15,2013-07-14 23:00:00,
2013-07-14 19:10:00,80.0,52.8,30.23,SW,227,7.0,11.0,39,0.00,,,0.00,49,Wunderground v.1.15,2013-07-14 23:10:00,
2013-07-14 19:20:00,79.6,48.0,30.23,WSW,246,8.0,9.0,33,0.00,,,0.00,49,Wunderground v.1.15,2013-07-14 23:20:00,
2013-07-14 19:30:00,79.4,47.8,30.23,WSW,249,7.0,11.0,33,0.00,,,0.00,74,Wunderground v.1.15,2013-07-14 23:30:00,
2013-07-14 19:35:00,79.3,47.7,30.22,SW,231,7.0,11.0,33,0.00,,,0.00,69,Wunderground v.1.15,2013-07-14 23:35:00,
2013-07-14 19:40:00,79.3,46.0,30.22,WSW,240,7.0,7.0,31,0.00,,,0.00,67,Wunderground v.1.15,2013-07-14 23:40:00,
2013-07-14 19:50:00,79.2,45.1,30.22,WSW,253,7.0,8.0,30,0.00,,,0.00,51,Wunderground v.1.15,2013-07-14 23:50:00,
2013-07-14 20:00:00,79.1,41.3,30.22,SW,235,7.0,7.0,26,0.00,,,0.00,19,Wunderground v.1.15,2013-07-15 00:00:00,
2013-07-14 20:10:00,78.9,33.1,30.22,SW,236,6.0,10.0,19,0.00,,,0.00,11,Wunderground v.1.15,2013-07-15 00:10:00,
2013-07-14 20:20:00,78.7,31.6,30.23,SW,233,6.0,6.0,18,0.00,,,0.00,5,Wunderground v.1.15,2013-07-15 00:20:00,
2013-07-14 20:25:00,78.7,31.6,30.23,SSW,211,7.0,7.0,18,0.00,,,0.00,0,Wunderground v.1.15,2013-07-15 00:25:00,
2013-07-14 20:35:00,78.6,28.6,30.23,WSW,241,7.0,8.0,16,0.00,,,0.00,0,Wunderground v.1.15,2013-07-15 00:35:00,
2013-07-14 20:45:00,78.5,23.5,30.23,West,263,9.0,12.0,13,0.00,,,0.00,0,Wunderground v.1.15,2013-07-15 00:45:00,
2013-07-14 20:55:00,78.4,19.5,30.23,West,259,9.0,16.0,11,0.00,,,0.00,0,Wunderground v.1.15,2013-07-15 00:55:00,
2013-07-14 21:00:00,78.4,17.3,30.23,SW,219,9.0,9.0,10,0.00,,,0.00,0,Wunderground v.1.15,2013-07-15 01:00:00,
2013-07-14 21:10:00,78.4,9.2,30.23,WSW,257,6.0,6.0,7,0.00,,,0.00,0,Wunderground v.1.15,2013-07-15 01:10:00,
2013-07-14 21:15:00,78.4,5.8,30.23,WSW,240,7.0,7.0,6,0.00,,,0.00,0,Wunderground v.1.15,2013-07-15 01:15:00,
2013-07-14 21:25:00,78.2,9.0,30.23,SSW,204,7.0,7.0,7,0.00,,,0.00,0,Wunderground v.1.15,2013-07-15 01:25:00,
2013-07-14 21:35:00,77.6,8.6,30.23,SW,236,8.0,8.0,7,0.00,,,0.00,0,Wunderground v.1.15,2013-07-15 01:35:00,
2013-07-14 21:40:00,77.4,5.0,30.23,WSW,247,7.0,13.0,6,0.00,,,0.00,0,Wunderground v.1.15,2013-07-15 01:40:00,
2013-07-14 21:45:00,77.3,-3.7,30.23,WSW,257,7.0,13.0,4,0.00,,,0.00,0,Wunderground v.1.15,2013-07-15 01:45:00,
2013-07-14 21:50:00,77.3,-17.7,30.23,West,259,7.0,8.0,2,0.00,,,0.00,0,Wunderground v.1.15,2013-07-15 01:50:00,
2013-07-14 21:55:00,77.3,-30.8,30.23,SW,236,7.0,8.0,1,0.00,,,0.00,0,Wunderground v.1.15,2013-07-15 01:55:00,
2013-07-14 22:05:00,77.5,-99.9,30.23,WSW,248,6.0,9.0,0,0.00,,,0.00,0,Wunderground v.1.15,2013-07-15 02:05:00,
2013-07-14 22:10:00,77.9,-3.3,30.23,SW,236,6.0,7.0,4,0.00,,,0.00,0,Wunderground v.1.15,2013-07-15 02:10:00,
2013-07-14 22:20:00,78.4,40.7,30.23,WSW,244,7.0,7.0,26,0.00,,,0.00,0,Wunderground v.1.15,2013-07-15 02:20:00,
2013-07-14 22:30:00,78.8,53.8,30.23,West,273,7.0,7.0,42,0.00,,,0.00,0,Wunderground v.1.15,2013-07-15 02:30:00,
2013-07-14 22:35:00,79.0,57.6,30.23,WSW,252,9.0,9.0,48,0.00,,,0.00,0,Wunderground v.1.15,2013-07-15 02:35:00,
2013-07-14 22:45:00,79.2,60.6,30.22,West,265,8.0,9.0,53,0.00,,,0.00,0,Wunderground v.1.15,2013-07-15 02:45:00,
2013-07-14 22:55:00,79.1,62.1,30.22,WSW,252,8.0,9.0,56,0.00,,,0.00,0,Wunderground v.1.15,2013-07-15 02:55:00,
2013-07-14 23:00:00,79.1,62.6,30.22,West,266,8.0,8.0,57,0.00,,,0.00,0,Wunderground v.1.15,2013-07-15 03:00:00,
2013-07-14 23:05:00,79.2,63.6,30.22,WSW,255,9.0,9.0,59,0.00,,,0.00,0,Wunderground v.1.15,2013-07-15 03:05:00,
2013-07-14 23:15:00,79.2,63.6,30.23,NW,315,7.0,8.0,59,0.00,,,0.00,0,Wunderground v.1.15,2013-07-15 03:15:00,
2013-07-14 23:20:00,79.2,61.1,30.22,NW,307,6.0,6.0,54,0.00,,,0.01,0,Wunderground v.1.15,2013-07-15 03:20:00,
2013-07-14 23:25:00,79.0,58.2,30.22,West,261,4.0,6.0,49,0.12,,,0.02,0,Wunderground v.1.15,2013-07-15 03:25:00,
2013-07-14 23:35:00,78.1,45.0,30.22,WSW,244,5.0,7.0,31,0.05,,,0.02,0,Wunderground v.1.15,2013-07-15 03:35:00,
2013-07-14 23:45:00,77.9,39.2,30.22,West,281,4.0,4.0,25,0.00,,,0.02,0,Wunderground v.1.15,2013-07-15 03:45:00,
2013-07-14 23:50:00,77.8,35.9,30.22,WNW,283,4.0,6.0,22,0.00,,,0.02,0,Wunderground v.1.15,2013-07-15 03:50:00,